Hourly Weather Bolshie Ozerki

Today, 23 June, Wednesday

Time Temperature Precipitation Wind Pressure Humidity
00:00 +23°C° 0 mm 2 mps 749 mmHg 73%
01:00 +22°C° 0 mm 3 mps 749 mmHg 74%
02:00 +22°C° 0 mm 3 mps 749 mmHg 75%
03:00 +21°C° 0 mm 3 mps 749 mmHg 76%
04:00 +22°C° 0 mm 3 mps 749 mmHg 77%
05:00 +23°C° 0 mm 2 mps 749 mmHg 79%
06:00 +23°C° 0 mm 2 mps 749 mmHg 80%
07:00 +25°C° 0 mm 3 mps 749 mmHg 75%
08:00 +27°C° 0 mm 3 mps 749 mmHg 69%
09:00 +29°C° 0 mm 3 mps 749 mmHg 64%
10:00 +30°C° 0 mm 3 mps 749 mmHg 59%
11:00 +31°C° 0 mm 3 mps 749 mmHg 55%
12:00 +32°C° 0 mm 2 mps 749 mmHg 51%
13:00 +34°C° 0 mm 2 mps 749 mmHg 49%
14:00 +34°C° 0 mm 2 mps 749 mmHg 47%
15:00 +34°C° 0 mm 2 mps 749 mmHg 45%
16:00 +34°C° 0 mm 2 mps 749 mmHg 50%
17:00 +32°C° 0 mm 2 mps 749 mmHg 55%
18:00 +32°C° 0 mm 2 mps 749 mmHg 60%
19:00 +30°C° 0 mm 2 mps 749 mmHg 65%
20:00 +28°C° 0 mm 2 mps 749 mmHg 69%
21:00 +26°C° 0 mm 2 mps 749 mmHg 73%
22:00 +25°C° 0 mm 2 mps 749 mmHg 74%
23:00 +25°C° 0 mm 2 mps 749 mmHg 75%

Tomorrow, 24 June, Thursday

Time Temperature Precipitation Wind Pressure Humidity
00:00 +24°C° 0 mm 2 mps 749 mmHg 76%
01:00 +24°C° 0 mm 2 mps 749 mmHg 77%
02:00 +23°C° 0 mm 2 mps 749 mmHg 77%
03:00 +23°C° 0 mm 2 mps 749 mmHg 78%
04:00 +23°C° 0 mm 2 mps 749 mmHg 78%
05:00 +24°C° 0 mm 2 mps 749 mmHg 78%
06:00 +24°C° 0 mm 1 mps 749 mmHg 78%
07:00 +26°C° 0 mm 2 mps 749 mmHg 73%
08:00 +27°C° 0 mm 2 mps 749 mmHg 67%
09:00 +29°C° 0 mm 2 mps 749 mmHg 62%
10:00 +30°C° 0 mm 2 mps 749 mmHg 58%
11:00 +31°C° 0 mm 2 mps 749 mmHg 54%
12:00 +32°C° 0 mm 2 mps 749 mmHg 50%
13:00 +32°C° 0 mm 2 mps 749 mmHg 49%
14:00 +33°C° 0 mm 1 mps 749 mmHg 47%
15:00 +33°C° 0 mm 1 mps 749 mmHg 45%
16:00 +30°C° 0.9 mm 2 mps 748 mmHg 57%
17:00 +28°C° 0.9 mm 4 mps 748 mmHg 69%
18:00 +25°C° 0.9 mm 5 mps 748 mmHg 81%
19:00 +25°C° 0.7 mm 4 mps 748 mmHg 74%
20:00 +25°C° 0.7 mm 3 mps 748 mmHg 66%
21:00 +24°C° 0.7 mm 1 mps 748 mmHg 59%
22:00 +24°C° 0 mm 2 mps 748 mmHg 66%
23:00 +23°C° 0 mm 2 mps 747 mmHg 73%

Day after tomorrow, 25 June, Friday

Time Temperature Precipitation Wind Pressure Humidity
00:00 +21°C° 0 mm 3 mps 747 mmHg 80%
01:00 +21°C° 0 mm 2 mps 747 mmHg 81%
02:00 +21°C° 0 mm 2 mps 747 mmHg 82%
03:00 +22°C° 0 mm 1 mps 747 mmHg 83%
04:00 +22°C° 0 mm 1 mps 747 mmHg 83%
05:00 +23°C° 0 mm 1 mps 747 mmHg 83%
06:00 +23°C° 0 mm 2 mps 748 mmHg 84%
07:00 +25°C° 0 mm 2 mps 747 mmHg 78%
08:00 +27°C° 0 mm 2 mps 747 mmHg 72%
09:00 +28°C° 0 mm 2 mps 747 mmHg 66%
10:00 +29°C° 0 mm 2 mps 747 mmHg 62%
11:00 +30°C° 0 mm 2 mps 747 mmHg 58%
12:00 +31°C° 0 mm 2 mps 747 mmHg 54%
13:00 +32°C° 0 mm 2 mps 747 mmHg 52%
14:00 +32°C° 0 mm 2 mps 747 mmHg 50%
15:00 +32°C° 0 mm 2 mps 747 mmHg 47%
16:00 +32°C° 0 mm 1 mps 746 mmHg 51%
17:00 +32°C° 0 mm 1 mps 746 mmHg 54%
18:00 +31°C° 0 mm 1 mps 745 mmHg 58%
19:00 +30°C° 0 mm 1 mps 745 mmHg 61%
20:00 +28°C° 0 mm 1 mps 745 mmHg 65%
21:00 +26°C° 0 mm 1 mps 745 mmHg 69%
22:00 +25°C° 0 mm 1 mps 745 mmHg 70%
23:00 +25°C° 0 mm 1 mps 745 mmHg 71%

26 June, Saturday

Time Temperature Precipitation Wind Pressure Humidity
00:00 +22°C° 0 mm 0 mps 745 mmHg 73%
01:00 +24°C° 0 mm 1 mps 745 mmHg 74%
02:00 +23°C° 0 mm 1 mps 745 mmHg 76%
03:00 +23°C° 0 mm 1 mps 745 mmHg 78%
04:00 +23°C° 0 mm 1 mps 745 mmHg 79%
05:00 +24°C° 0 mm 1 mps 745 mmHg 79%
06:00 +25°C° 0 mm 1 mps 745 mmHg 80%
07:00 +26°C° 0 mm 1 mps 745 mmHg 74%
08:00 +28°C° 0 mm 1 mps 745 mmHg 69%
09:00 +29°C° 0 mm 1 mps 745 mmHg 64%
10:00 +30°C° 0.1 mm 1 mps 745 mmHg 60%
11:00 +31°C° 0.1 mm 1 mps 745 mmHg 56%
12:00 +32°C° 0.1 mm 1 mps 745 mmHg 52%
13:00 +32°C° 0 mm 1 mps 745 mmHg 50%
14:00 +33°C° 0 mm 1 mps 745 mmHg 48%
15:00 +33°C° 0 mm 1 mps 745 mmHg 46%
16:00 +33°C° 0 mm 1 mps 744 mmHg 50%
17:00 +32°C° 0 mm 1 mps 744 mmHg 55%
18:00 +32°C° 0 mm 1 mps 744 mmHg 59%
19:00 +30°C° 0 mm 1 mps 744 mmHg 62%
20:00 +28°C° 0 mm 1 mps 744 mmHg 66%
21:00 +26°C° 0 mm 1 mps 744 mmHg 69%
22:00 +26°C° 0 mm 1 mps 744 mmHg 70%
23:00 +25°C° 0 mm 1 mps 744 mmHg 71%

27 June, Sunday

Time Temperature Precipitation Wind Pressure Humidity
00:00 +25°C° 0 mm 1 mps 744 mmHg 72%
01:00 +25°C° 0 mm 2 mps 744 mmHg 73%
02:00 +24°C° 0 mm 2 mps 744 mmHg 74%
03:00 +24°C° 0 mm 2 mps 744 mmHg 76%
04:00 +24°C° 0 mm 2 mps 744 mmHg 77%
05:00 +25°C° 0 mm 1 mps 744 mmHg 77%
06:00 +25°C° 0 mm 1 mps 744 mmHg 78%
07:00 +27°C° 0 mm 1 mps 744 mmHg 72%
08:00 +28°C° 0 mm 1 mps 744 mmHg 67%
09:00 +30°C° 0 mm 1 mps 744 mmHg 62%
10:00 +31°C° 0 mm 1 mps 744 mmHg 58%
11:00 +32°C° 0 mm 1 mps 744 mmHg 54%
12:00 +33°C° 0 mm 1 mps 744 mmHg 50%
13:00 +33°C° 0 mm 1 mps 744 mmHg 48%
14:00 +34°C° 0 mm 1 mps 744 mmHg 46%
15:00 +34°C° 0 mm 1 mps 744 mmHg 44%
16:00 +34°C° 0 mm 1 mps 744 mmHg 48%
17:00 +34°C° 0 mm 1 mps 743 mmHg 51%
18:00 +33°C° 0 mm 1 mps 743 mmHg 55%
19:00 +31°C° 0 mm 1 mps 743 mmHg 59%
20:00 +29°C° 0 mm 2 mps 743 mmHg 64%
21:00 +27°C° 0 mm 2 mps 742 mmHg 68%
22:00 +27°C° 0 mm 2 mps 743 mmHg 70%
23:00 +26°C° 0 mm 3 mps 743 mmHg 72%

28 June, Monday

Time Temperature Precipitation Wind Pressure Humidity
00:00 +25°C° 0 mm 3 mps 743 mmHg 74%
01:00 +24°C° 0.3 mm 3 mps 743 mmHg 77%
02:00 +24°C° 0.3 mm 3 mps 743 mmHg 81%
03:00 +22°C° 0.3 mm 3 mps 743 mmHg 84%
04:00 +24°C° 0.1 mm 2 mps 742 mmHg 84%
05:00 +24°C° 0.1 mm 2 mps 742 mmHg 83%
06:00 +25°C° 0.1 mm 2 mps 742 mmHg 82%
07:00 +26°C° 0 mm 2 mps 742 mmHg 76%
08:00 +28°C° 0 mm 2 mps 742 mmHg 70%
09:00 +30°C° 0 mm 3 mps 742 mmHg 65%
10:00 +31°C° 0 mm 3 mps 742 mmHg 60%
11:00 +33°C° 0 mm 3 mps 742 mmHg 55%
12:00 +34°C° 0 mm 4 mps 742 mmHg 50%
13:00 +34°C° 0 mm 4 mps 742 mmHg 49%
14:00 +34°C° 0 mm 4 mps 742 mmHg 48%
15:00 +35°C° 0 mm 4 mps 742 mmHg 47%
16:00 +34°C° 0 mm 3 mps 741 mmHg 51%
17:00 +34°C° 0 mm 3 mps 741 mmHg 55%
18:00 +33°C° 0 mm 3 mps 740 mmHg 59%
19:00 +29°C° 0.6 mm 3 mps 740 mmHg 66%
20:00 +27°C° 0.6 mm 2 mps 740 mmHg 73%
21:00 +24°C° 0.6 mm 2 mps 741 mmHg 80%
22:00 +24°C° 2.7 mm 2 mps 741 mmHg 84%
23:00 +23°C° 2.7 mm 2 mps 741 mmHg 87%
Show more